Private Wetterstation Sandau
Wetterdaten: Mittwoch, 21.03.2012
Datum Zeit Temp. A. Feuchte A. Luftdruck Regen Wind Richtung Richtung Taupunkt Windchill
21.03.2012 00:02 10,6 C 70 % 1034,0 hPa 0,0 l/m 10,4 km/h (2 Bft) W-NW 292 5,4 C 10,6 C
21.03.2012 00:07 10,5 C 70 % 1033,8 hPa 0,0 l/m 16,2 km/h (3 Bft) S-SW 202 5,3 C 10,5 C
21.03.2012 00:12 10,5 C 70 % 1034,0 hPa 0,0 l/m 6,1 km/h (2 Bft) W-SW 247 5,3 C 10,5 C
21.03.2012 00:17 10,5 C 70 % 1033,9 hPa 0,0 l/m 7,6 km/h (2 Bft) W-NW 292 5,3 C 10,5 C
21.03.2012 00:22 10,5 C 70 % 1034,1 hPa 0,0 l/m 4,0 km/h (1 Bft) W 270 5,3 C 10,5 C
21.03.2012 00:27 10,5 C 70 % 1033,9 hPa 0,0 l/m 7,9 km/h (2 Bft) W 270 5,3 C 10,5 C
21.03.2012 00:32 10,6 C 71 % 1034,0 hPa 0,0 l/m 6,8 km/h (2 Bft) NW 315 5,6 C 10,6 C
21.03.2012 00:37 10,6 C 71 % 1034,0 hPa 0,0 l/m 10,4 km/h (2 Bft) W 270 5,6 C 10,6 C
21.03.2012 00:42 10,6 C 71 % 1034,1 hPa 0,0 l/m 7,6 km/h (2 Bft) W-SW 247 5,6 C 10,6 C
21.03.2012 00:47 10,6 C 71 % 1034,1 hPa 0,0 l/m 4,0 km/h (1 Bft) W 270 5,6 C 10,6 C
21.03.2012 00:52 10,6 C 71 % 1034,2 hPa 0,0 l/m 12,6 km/h (3 Bft) W 270 5,6 C 10,6 C
21.03.2012 00:57 10,6 C 71 % 1034,3 hPa 0,0 l/m 7,6 km/h (2 Bft) SW 225 5,6 C 10,6 C
21.03.2012 01:02 10,6 C 71 % 1034,4 hPa 0,0 l/m 10,8 km/h (2 Bft) W-NW 292 5,6 C 10,6 C
21.03.2012 01:07 10,6 C 72 % 1034,2 hPa 0,0 l/m 7,2 km/h (2 Bft) W-NW 292 5,8 C 10,6 C
21.03.2012 01:12 10,6 C 72 % 1034,3 hPa 0,0 l/m 6,8 km/h (2 Bft) W 270 5,8 C 10,6 C
21.03.2012 01:17 10,5 C 72 % 1034,4 hPa 0,0 l/m 8,6 km/h (2 Bft) W-SW 247 5,7 C 10,5 C
21.03.2012 01:22 10,5 C 72 % 1034,3 hPa 0,0 l/m 4,0 km/h (1 Bft) W-SW 247 5,7 C 10,5 C
21.03.2012 01:27 10,5 C 72 % 1034,4 hPa 0,0 l/m 6,5 km/h (2 Bft) W-NW 292 5,7 C 10,5 C
21.03.2012 01:32 10,5 C 72 % 1034,4 hPa 0,0 l/m 4,7 km/h (1 Bft) W 270 5,7 C 10,5 C
21.03.2012 01:37 10,5 C 72 % 1034,4 hPa 0,0 l/m 7,6 km/h (2 Bft) NW 315 5,7 C 10,5 C
21.03.2012 01:42 10,5 C 72 % 1034,5 hPa 0,0 l/m 9,0 km/h (2 Bft) W-SW 247 5,7 C 10,5 C
21.03.2012 01:47 10,4 C 73 % 1034,3 hPa 0,0 l/m 7,2 km/h (2 Bft) W-SW 247 5,8 C 10,4 C
21.03.2012 01:52 10,4 C 73 % 1034,4 hPa 0,0 l/m 6,1 km/h (2 Bft) W 270 5,8 C 10,4 C
21.03.2012 01:57 10,4 C 73 % 1034,4 hPa 0,0 l/m 5,8 km/h (2 Bft) W-NW 292 5,8 C 10,4 C
21.03.2012 02:02 10,4 C 73 % 1034,4 hPa 0,0 l/m 7,6 km/h (2 Bft) W-SW 247 5,8 C 10,4 C
21.03.2012 02:07 10,4 C 73 % 1034,5 hPa 0,0 l/m 7,2 km/h (2 Bft) W-NW 292 5,8 C 10,4 C
21.03.2012 02:12 10,4 C 74 % 1034,5 hPa 0,0 l/m 9,0 km/h (2 Bft) W 270 6,0 C 10,4 C
21.03.2012 02:17 10,4 C 74 % 1034,6 hPa 0,0 l/m 16,6 km/h (3 Bft) W 270 6,0 C 10,4 C
21.03.2012 02:22 10,4 C 74 % 1034,5 hPa 0,0 l/m 10,1 km/h (2 Bft) NW 315 6,0 C 10,4 C
21.03.2012 02:27 10,4 C 74 % 1034,4 hPa 0,0 l/m 9,7 km/h (2 Bft) W-SW 247 6,0 C 10,4 C
21.03.2012 02:32 10,4 C 74 % 1034,4 hPa 0,0 l/m 11,9 km/h (2 Bft) W-NW 292 6,0 C 10,4 C
21.03.2012 02:37 10,4 C 74 % 1034,4 hPa 0,0 l/m 7,6 km/h (2 Bft) NW 315 6,0 C 10,4 C
21.03.2012 02:42 10,4 C 74 % 1034,5 hPa 0,0 l/m 2,9 km/h (1 Bft) W 270 6,0 C 10,4 C
21.03.2012 02:47 10,3 C 74 % 1034,5 hPa 0,0 l/m 2,5 km/h (1 Bft) W 270 5,9 C 10,3 C
21.03.2012 02:52 10,3 C 74 % 1034,6 hPa 0,0 l/m 9,4 km/h (2 Bft) W 270 5,9 C 10,3 C
21.03.2012 02:57 10,3 C 75 % 1034,6 hPa 0,0 l/m 4,7 km/h (1 Bft) W 270 6,1 C 10,3 C
21.03.2012 03:02 10,3 C 75 % 1034,5 hPa 0,0 l/m 5,0 km/h (1 Bft) W 270 6,1 C 10,3 C
21.03.2012 03:07 10,3 C 75 % 1034,6 hPa 0,0 l/m 6,1 km/h (2 Bft) W-NW 292 6,1 C 10,3 C
21.03.2012 03:12 10,3 C 75 % 1034,7 hPa 0,0 l/m 4,7 km/h (1 Bft) W 270 6,1 C 10,3 C
21.03.2012 03:17 10,3 C 75 % 1034,5 hPa 0,0 l/m 5,4 km/h (1 Bft) W 270 6,1 C 10,3 C
21.03.2012 03:22 10,3 C 75 % 1034,7 hPa 0,0 l/m 6,1 km/h (2 Bft) W-SW 247 6,1 C 10,3 C
21.03.2012 03:27 10,2 C 75 % 1034,7 hPa 0,0 l/m 4,0 km/h (1 Bft) W-NW 292 6,0 C 10,2 C
21.03.2012 03:32 10,2 C 75 % 1034,5 hPa 0,0 l/m 5,0 km/h (1 Bft) W-NW 292 6,0 C 10,2 C
21.03.2012 03:37 10,1 C 76 % 1034,5 hPa 0,0 l/m 3,6 km/h (1 Bft) W 270 6,1 C 10,1 C
21.03.2012 03:42 10,2 C 76 % 1034,5 hPa 0,0 l/m 8,3 km/h (2 Bft) W-SW 247 6,2 C 10,2 C
21.03.2012 03:47 10,2 C 76 % 1034,4 hPa 0,0 l/m 2,9 km/h (1 Bft) W-SW 247 6,2 C 10,2 C
21.03.2012 03:52 10,2 C 76 % 1034,4 hPa 0,0 l/m 4,7 km/h (1 Bft) N 360 6,2 C 10,2 C
21.03.2012 03:57 10,1 C 76 % 1034,5 hPa 0,0 l/m 3,6 km/h (1 Bft) W-SW 247 6,1 C 10,1 C
21.03.2012 04:02 10,1 C 76 % 1034,5 hPa 0,0 l/m 8,3 km/h (2 Bft) W 270 6,1 C 10,1 C
21.03.2012 04:07 10,1 C 76 % 1034,3 hPa 0,0 l/m 5,8 km/h (2 Bft) W-NW 292 6,1 C 10,1 C
21.03.2012 04:12 10,1 C 76 % 1034,4 hPa 0,0 l/m 3,6 km/h (1 Bft) W 270 6,1 C 10,1 C
21.03.2012 04:17 10,1 C 76 % 1034,4 hPa 0,0 l/m 4,7 km/h (1 Bft) W 270 6,1 C 10,1 C
21.03.2012 04:22 10,1 C 76 % 1034,4 hPa 0,0 l/m 9,4 km/h (2 Bft) SW 225 6,1 C 10,1 C
21.03.2012 04:27 10,1 C 76 % 1034,5 hPa 0,0 l/m 5,4 km/h (1 Bft) W-SW 247 6,1 C 10,1 C
21.03.2012 04:32 10,1 C 76 % 1034,6 hPa 0,0 l/m 9,7 km/h (2 Bft) W-SW 247 6,1 C 10,1 C
21.03.2012 04:37 10,1 C 76 % 1034,5 hPa 0,0 l/m 2,9 km/h (1 Bft) W 270 6,1 C 10,1 C
21.03.2012 04:42 10,1 C 77 % 1034,4 hPa 0,0 l/m 9,7 km/h (2 Bft) W-SW 247 6,3 C 10,1 C
21.03.2012 04:47 10,1 C 77 % 1034,4 hPa 0,0 l/m 9,4 km/h (2 Bft) W-SW 247 6,3 C 10,1 C
21.03.2012 04:52 10,0 C 77 % 1034,4 hPa 0,0 l/m 4,7 km/h (1 Bft) W-NW 292 6,2 C 9,8 C
21.03.2012 04:57 10,0 C 77 % 1034,5 hPa 0,0 l/m 5,8 km/h (2 Bft) W-SW 247 6,2 C 9,5 C
21.03.2012 05:02 9,9 C 77 % 1034,5 hPa 0,0 l/m 11,2 km/h (2 Bft) W 270 6,1 C 8,3 C
21.03.2012 05:07 9,9 C 78 % 1034,3 hPa 0,0 l/m 4,0 km/h (1 Bft) W-NW 292 6,2 C 9,9 C
21.03.2012 05:12 9,9 C 78 % 1034,4 hPa 0,0 l/m 6,1 km/h (2 Bft) W 270 6,2 C 9,3 C
21.03.2012 05:17 9,9 C 78 % 1034,4 hPa 0,0 l/m 6,5 km/h (2 Bft) W 270 6,2 C 9,2 C
21.03.2012 05:22 9,9 C 78 % 1034,3 hPa 0,0 l/m 4,0 km/h (1 Bft) W 270 6,2 C 9,9 C
21.03.2012 05:27 9,9 C 78 % 1034,5 hPa 0,0 l/m 4,0 km/h (1 Bft) W 270 6,2 C 9,9 C
21.03.2012 05:32 9,9 C 78 % 1034,5 hPa 0,0 l/m 6,1 km/h (2 Bft) W 270 6,2 C 9,3 C
21.03.2012 05:37 9,9 C 78 % 1034,6 hPa 0,0 l/m 5,4 km/h (1 Bft) W 270 6,2 C 9,5 C
21.03.2012 05:42 9,9 C 78 % 1034,5 hPa 0,0 l/m 5,8 km/h (2 Bft) W 270 6,2 C 9,4 C
21.03.2012 05:47 9,9 C 78 % 1034,5 hPa 0,0 l/m 6,5 km/h (2 Bft) W-NW 292 6,2 C 9,2 C
21.03.2012 05:52 9,9 C 79 % 1034,6 hPa 0,0 l/m 5,0 km/h (1 Bft) NW 315 6,4 C 9,6 C
21.03.2012 05:57 9,9 C 79 % 1034,5 hPa 0,0 l/m 3,6 km/h (1 Bft) W-NW 292 6,4 C 9,9 C
21.03.2012 06:02 9,9 C 79 % 1034,6 hPa 0,0 l/m 4,7 km/h (1 Bft) W 270 6,4 C 9,7 C
21.03.2012 06:07 9,9 C 79 % 1034,6 hPa 0,0 l/m 7,6 km/h (2 Bft) W-NW 292 6,4 C 9,0 C
21.03.2012 06:12 9,9 C 79 % 1034,6 hPa 0,0 l/m 10,8 km/h (2 Bft) W 270 6,4 C 8,4 C
21.03.2012 06:17 9,9 C 79 % 1034,6 hPa 0,0 l/m 4,3 km/h (1 Bft) W-NW 292 6,4 C 9,9 C
21.03.2012 06:22 9,8 C 79 % 1034,7 hPa 0,0 l/m 3,2 km/h (1 Bft) W-NW 292 6,3 C 9,8 C
21.03.2012 06:27 9,9 C 79 % 1034,7 hPa 0,0 l/m 5,8 km/h (2 Bft) W-SW 247 6,4 C 9,4 C
21.03.2012 06:32 9,8 C 79 % 1034,6 hPa 0,0 l/m 5,0 km/h (1 Bft) W-SW 247 6,3 C 9,5 C
21.03.2012 06:37 9,8 C 79 % 1034,6 hPa 0,0 l/m 3,2 km/h (1 Bft) W-SW 247 6,3 C 9,8 C
21.03.2012 06:42 9,8 C 79 % 1034,6 hPa 0,0 l/m 0,0 km/h (0 Bft) W 270 6,3 C 9,8 C
21.03.2012 06:47 9,8 C 79 % 1034,7 hPa 0,0 l/m 2,9 km/h (1 Bft) W-SW 247 6,3 C 9,8 C
21.03.2012 06:52 9,8 C 79 % 1034,8 hPa 0,0 l/m 7,2 km/h (2 Bft) W-SW 247 6,3 C 8,9 C
21.03.2012 06:57 9,9 C 79 % 1034,9 hPa 0,0 l/m 6,1 km/h (2 Bft) W-SW 247 6,4 C 9,3 C
21.03.2012 07:02 9,9 C 79 % 1034,9 hPa 0,0 l/m 4,0 km/h (1 Bft) NW 315 6,4 C 9,9 C
21.03.2012 07:07 9,9 C 79 % 1035,1 hPa 0,0 l/m 10,1 km/h (2 Bft) W 270 6,4 C 8,5 C
21.03.2012 07:12 9,9 C 79 % 1035,1 hPa 0,0 l/m 7,6 km/h (2 Bft) W 270 6,4 C 9,0 C
21.03.2012 07:17 9,9 C 79 % 1035,1 hPa 0,0 l/m 5,8 km/h (2 Bft) SW 225 6,4 C 9,4 C
21.03.2012 07:22 9,9 C 79 % 1035,1 hPa 0,0 l/m 2,2 km/h (1 Bft) W-SW 247 6,4 C 9,9 C
21.03.2012 07:27 9,9 C 80 % 1035,3 hPa 0,0 l/m 2,5 km/h (1 Bft) W 270 6,6 C 9,9 C
21.03.2012 07:32 9,9 C 80 % 1035,3 hPa 0,0 l/m 5,0 km/h (1 Bft) W-SW 247 6,6 C 9,6 C
21.03.2012 07:37 9,9 C 80 % 1035,3 hPa 0,0 l/m 5,0 km/h (1 Bft) W-NW 292 6,6 C 9,6 C
21.03.2012 07:42 9,9 C 79 % 1035,4 hPa 0,0 l/m 4,0 km/h (1 Bft) NW 315 6,4 C 9,9 C
21.03.2012 07:47 9,9 C 80 % 1035,5 hPa 0,0 l/m 7,6 km/h (2 Bft) W 270 6,6 C 9,0 C
21.03.2012 07:52 9,9 C 80 % 1035,4 hPa 0,0 l/m 10,1 km/h (2 Bft) NW 315 6,6 C 8,5 C
21.03.2012 07:57 10,1 C 80 % 1035,6 hPa 0,0 l/m 4,0 km/h (1 Bft) W-SW 247 6,8 C 10,1 C
21.03.2012 08:02 10,1 C 80 % 1035,6 hPa 0,0 l/m 2,2 km/h (1 Bft) W 270 6,8 C 10,1 C
21.03.2012 08:07 10,1 C 80 % 1035,7 hPa 0,0 l/m 4,0 km/h (1 Bft) W 270 6,8 C 10,1 C
21.03.2012 08:12 10,1 C 80 % 1035,7 hPa 0,0 l/m 10,4 km/h (2 Bft) W-NW 292 6,8 C 10,1 C
21.03.2012 08:17 10,1 C 80 % 1035,5 hPa 0,0 l/m 4,3 km/h (1 Bft) W-NW 292 6,8 C 10,1 C
21.03.2012 08:22 10,1 C 80 % 1035,7 hPa 0,0 l/m 8,3 km/h (2 Bft) W-NW 292 6,8 C 10,1 C
21.03.2012 08:27 10,2 C 80 % 1035,6 hPa 0,0 l/m 6,1 km/h (2 Bft) W-NW 292 6,9 C 10,2 C
21.03.2012 08:32 10,2 C 80 % 1035,6 hPa 0,0 l/m 10,4 km/h (2 Bft) NW 315 6,9 C 10,2 C
21.03.2012 08:37 10,2 C 80 % 1035,8 hPa 0,0 l/m 7,9 km/h (2 Bft) W-NW 292 6,9 C 10,2 C
21.03.2012 08:42 10,3 C 80 % 1035,7 hPa 0,0 l/m 7,6 km/h (2 Bft) NW 315 7,0 C 10,3 C
21.03.2012 08:47 10,3 C 80 % 1035,8 hPa 0,0 l/m 12,6 km/h (3 Bft) W 270 7,0 C 10,3 C
21.03.2012 08:52 10,3 C 80 % 1035,8 hPa 0,0 l/m 8,3 km/h (2 Bft) W 270 7,0 C 10,3 C
21.03.2012 08:57 10,4 C 80 % 1035,9 hPa 0,0 l/m 9,4 km/h (2 Bft) W-NW 292 7,1 C 10,4 C
21.03.2012 09:02 10,4 C 80 % 1036,0 hPa 0,0 l/m 5,0 km/h (1 Bft) W 270 7,1 C 10,4 C
21.03.2012 09:07 10,5 C 80 % 1036,1 hPa 0,0 l/m 11,5 km/h (2 Bft) W 270 7,2 C 10,5 C
21.03.2012 09:12 10,5 C 79 % 1036,0 hPa 0,0 l/m 8,3 km/h (2 Bft) NW 315 7,0 C 10,5 C
21.03.2012 09:17 10,6 C 79 % 1036,2 hPa 0,0 l/m 8,3 km/h (2 Bft) W 270 7,1 C 10,6 C
21.03.2012 09:22 10,6 C 79 % 1036,2 hPa 0,0 l/m 6,1 km/h (2 Bft) W-NW 292 7,1 C 10,6 C
21.03.2012 09:27 10,6 C 79 % 1036,3 hPa 0,0 l/m 6,5 km/h (2 Bft) NW 315 7,1 C 10,6 C
21.03.2012 09:32 10,6 C 79 % 1036,3 hPa 0,0 l/m 6,1 km/h (2 Bft) W 270 7,1 C 10,6 C
21.03.2012 09:37 10,7 C 79 % 1036,3 hPa 0,0 l/m 6,8 km/h (2 Bft) W-NW 292 7,2 C 10,7 C
21.03.2012 09:42 10,7 C 79 % 1036,2 hPa 0,0 l/m 7,6 km/h (2 Bft) W 270 7,2 C 10,7 C
21.03.2012 09:47 10,8 C 79 % 1036,2 hPa 0,0 l/m 8,3 km/h (2 Bft) W-NW 292 7,3 C 10,8 C
21.03.2012 09:52 10,8 C 79 % 1036,2 hPa 0,0 l/m 13,0 km/h (3 Bft) NW 315 7,3 C 10,8 C
21.03.2012 09:57 10,8 C 79 % 1036,3 hPa 0,0 l/m 7,9 km/h (2 Bft) W-NW 292 7,3 C 10,8 C
21.03.2012 10:02 10,8 C 79 % 1036,3 hPa 0,0 l/m 10,1 km/h (2 Bft) NW 315 7,3 C 10,8 C
21.03.2012 10:07 10,9 C 79 % 1036,4 hPa 0,0 l/m 9,0 km/h (2 Bft) NW 315 7,4 C 10,9 C
21.03.2012 10:12 10,9 C 79 % 1036,4 hPa 0,0 l/m 6,5 km/h (2 Bft) W 270 7,4 C 10,9 C
21.03.2012 10:17 10,9 C 79 % 1036,4 hPa 0,0 l/m 16,9 km/h (3 Bft) W-NW 292 7,4 C 10,9 C
21.03.2012 10:22 10,9 C 79 % 1036,5 hPa 0,0 l/m 8,3 km/h (2 Bft) NW 315 7,4 C 10,9 C
21.03.2012 10:27 11,1 C 79 % 1036,4 hPa 0,0 l/m 10,4 km/h (2 Bft) W-NW 292 7,6 C 11,1 C
21.03.2012 10:32 11,2 C 79 % 1036,4 hPa 0,0 l/m 4,7 km/h (1 Bft) W-SW 247 7,7 C 11,2 C
21.03.2012 10:37 11,3 C 79 % 1036,3 hPa 0,0 l/m 5,0 km/h (1 Bft) NW 315 7,8 C 11,3 C
21.03.2012 10:42 11,5 C 78 % 1036,4 hPa 0,0 l/m 6,8 km/h (2 Bft) NW 315 7,8 C 11,5 C
21.03.2012 10:47 11,6 C 78 % 1036,5 hPa 0,0 l/m 11,9 km/h (2 Bft) NW 315 7,9 C 11,6 C
21.03.2012 10:52 11,8 C 78 % 1036,5 hPa 0,0 l/m 5,8 km/h (2 Bft) W-NW 292 8,1 C 11,8 C
21.03.2012 10:57 11,9 C 77 % 1036,6 hPa 0,0 l/m 6,5 km/h (2 Bft) N-NW 337 8,0 C 11,9 C
21.03.2012 11:02 11,9 C 77 % 1036,6 hPa 0,0 l/m 10,8 km/h (2 Bft) W-NW 292 8,0 C 11,9 C
21.03.2012 11:07 11,9 C 77 % 1036,6 hPa 0,0 l/m 13,0 km/h (3 Bft) W 270 8,0 C 11,9 C
21.03.2012 11:12 12,0 C 76 % 1036,6 hPa 0,0 l/m 8,3 km/h (2 Bft) W-SW 247 7,9 C 12,0 C
21.03.2012 11:17 12,0 C 76 % 1036,5 hPa 0,0 l/m 0,0 km/h (0 Bft) N-NO 22 7,9 C 12,0 C
21.03.2012 11:22 12,0 C 76 % 1036,6 hPa 0,0 l/m 6,1 km/h (2 Bft) NW 315 7,9 C 12,0 C
21.03.2012 11:27 12,1 C 76 % 1036,6 hPa 0,0 l/m 4,7 km/h (1 Bft) N 360 8,0 C 12,1 C
21.03.2012 11:32 12,1 C 76 % 1036,8 hPa 0,0 l/m 11,2 km/h (2 Bft) NW 315 8,0 C 12,1 C
21.03.2012 11:37 12,1 C 76 % 1036,6 hPa 0,0 l/m 6,1 km/h (2 Bft) NW 315 8,0 C 12,1 C
21.03.2012 11:42 12,2 C 76 % 1036,6 hPa 0,0 l/m 5,0 km/h (1 Bft) W-NW 292 8,1 C 12,2 C
21.03.2012 11:47 12,3 C 76 % 1036,8 hPa 0,0 l/m 5,8 km/h (2 Bft) W 270 8,2 C 12,3 C
21.03.2012 11:52 12,3 C 76 % 1036,7 hPa 0,0 l/m 6,8 km/h (2 Bft) W 270 8,2 C 12,3 C
21.03.2012 11:57 12,4 C 76 % 1036,8 hPa 0,0 l/m 5,0 km/h (1 Bft) W 270 8,3 C 12,4 C
21.03.2012 12:02 12,5 C 75 % 1036,7 hPa 0,0 l/m 4,0 km/h (1 Bft) W-SW 247 8,2 C 12,5 C
21.03.2012 12:07 12,6 C 75 % 1036,7 hPa 0,0 l/m 6,5 km/h (2 Bft) W-NW 292 8,3 C 12,6 C
21.03.2012 12:12 12,8 C 75 % 1036,8 hPa 0,0 l/m 4,7 km/h (1 Bft) NW 315 8,5 C 12,8 C
21.03.2012 12:17 13,0 C 74 % 1036,7 hPa 0,0 l/m 3,6 km/h (1 Bft) NW 315 8,5 C 13,0 C
21.03.2012 12:22 13,1 C 74 % 1036,6 hPa 0,0 l/m 5,0 km/h (1 Bft) W-SW 247 8,6 C 13,1 C
21.03.2012 12:27 13,3 C 74 % 1036,5 hPa 0,0 l/m 2,5 km/h (1 Bft) W-NW 292 8,8 C 13,3 C
21.03.2012 12:32 13,3 C 73 % 1036,6 hPa 0,0 l/m 7,2 km/h (2 Bft) NW 315 8,6 C 13,3 C
21.03.2012 12:37 13,4 C 73 % 1036,6 hPa 0,0 l/m 5,0 km/h (1 Bft) W-NW 292 8,7 C 13,4 C
21.03.2012 12:42 13,4 C 73 % 1036,6 hPa 0,0 l/m 7,6 km/h (2 Bft) W-NW 292 8,7 C 13,4 C
21.03.2012 12:47 13,5 C 72 % 1036,5 hPa 0,0 l/m 5,8 km/h (2 Bft) W-NW 292 8,6 C 13,5 C
21.03.2012 12:52 13,4 C 72 % 1036,5 hPa 0,0 l/m 2,9 km/h (1 Bft) W 270 8,5 C 13,4 C
21.03.2012 12:57 13,5 C 72 % 1036,5 hPa 0,0 l/m 6,5 km/h (2 Bft) N-NW 337 8,6 C 13,5 C
21.03.2012 13:02 13,6 C 72 % 1036,5 hPa 0,0 l/m 5,4 km/h (1 Bft) W-NW 292 8,6 C 13,6 C
21.03.2012 13:07 13,9 C 71 % 1036,5 hPa 0,0 l/m 3,2 km/h (1 Bft) N 360 8,7 C 13,9 C
21.03.2012 13:12 14,2 C 71 % 1036,5 hPa 0,0 l/m 2,5 km/h (1 Bft) W 270 9,0 C 14,2 C
21.03.2012 13:17 14,2 C 70 % 1036,4 hPa 0,0 l/m 10,4 km/h (2 Bft) W 270 8,8 C 14,2 C
21.03.2012 13:22 14,3 C 70 % 1036,3 hPa 0,0 l/m 7,2 km/h (2 Bft) W-SW 247 8,9 C 14,3 C
21.03.2012 13:27 14,5 C 70 % 1036,4 hPa 0,0 l/m 11,2 km/h (2 Bft) W-NW 292 9,1 C 14,5 C
21.03.2012 13:32 14,9 C 69 % 1036,3 hPa 0,0 l/m 6,1 km/h (2 Bft) W 270 9,3 C 14,9 C
21.03.2012 13:37 14,9 C 68 % 1036,2 hPa 0,0 l/m 7,6 km/h (2 Bft) W-NW 292 9,0 C 14,9 C
21.03.2012 13:42 15,2 C 67 % 1036,2 hPa 0,0 l/m 8,3 km/h (2 Bft) W 270 9,1 C 15,2 C
21.03.2012 13:47 15,2 C 67 % 1036,2 hPa 0,0 l/m 10,1 km/h (2 Bft) W-NW 292 9,1 C 15,2 C
21.03.2012 13:52 15,1 C 67 % 1036,2 hPa 0,0 l/m 4,0 km/h (1 Bft) W-NW 292 9,0 C 15,1 C
21.03.2012 13:57 14,9 C 67 % 1036,2 hPa 0,0 l/m 3,2 km/h (1 Bft) W 270 8,8 C 14,9 C
21.03.2012 14:02 14,9 C 67 % 1036,2 hPa 0,0 l/m 3,2 km/h (1 Bft) W-NW 292 8,8 C 14,9 C
21.03.2012 14:07 14,9 C 67 % 1036,2 hPa 0,0 l/m 4,0 km/h (1 Bft) W-SW 247 8,8 C 14,9 C
21.03.2012 14:12 14,9 C 67 % 1036,1 hPa 0,0 l/m 7,9 km/h (2 Bft) W 270 8,8 C 14,9 C
21.03.2012 14:17 14,9 C 67 % 1035,9 hPa 0,0 l/m 8,3 km/h (2 Bft) W-SW 247 8,8 C 14,9 C
21.03.2012 14:22 14,9 C 67 % 1035,8 hPa 0,0 l/m 9,4 km/h (2 Bft) W-SW 247 8,8 C 14,9 C
21.03.2012 14:27 14,9 C 67 % 1035,8 hPa 0,0 l/m 4,7 km/h (1 Bft) W 270 8,8 C 14,9 C
21.03.2012 14:32 14,9 C 67 % 1035,8 hPa 0,0 l/m 6,1 km/h (2 Bft) W 270 8,8 C 14,9 C
21.03.2012 14:37 14,9 C 67 % 1035,9 hPa 0,0 l/m 9,7 km/h (2 Bft) W-NW 292 8,8 C 14,9 C
21.03.2012 14:42 14,9 C 67 % 1035,9 hPa 0,0 l/m 6,5 km/h (2 Bft) W 270 8,8 C 14,9 C
21.03.2012 14:47 14,9 C 67 % 1035,8 hPa 0,0 l/m 3,2 km/h (1 Bft) W-SW 247 8,8 C 14,9 C
21.03.2012 14:52 14,9 C 67 % 1035,7 hPa 0,0 l/m 4,7 km/h (1 Bft) W-NW 292 8,8 C 14,9 C
21.03.2012 14:57 14,9 C 67 % 1035,7 hPa 0,0 l/m 4,0 km/h (1 Bft) W 270 8,8 C 14,9 C
21.03.2012 15:02 14,9 C 67 % 1035,8 hPa 0,0 l/m 2,5 km/h (1 Bft) W 270 8,8 C 14,9 C
21.03.2012 15:07 14,9 C 67 % 1035,7 hPa 0,0 l/m 4,3 km/h (1 Bft) W-SW 247 8,8 C 14,9 C
21.03.2012 15:12 14,9 C 67 % 1035,6 hPa 0,0 l/m 4,3 km/h (1 Bft) W 270 8,8 C 14,9 C
21.03.2012 15:17 14,9 C 67 % 1035,5 hPa 0,0 l/m 6,1 km/h (2 Bft) W 270 8,8 C 14,9 C
21.03.2012 15:22 14,9 C 67 % 1035,6 hPa 0,0 l/m 7,2 km/h (2 Bft) W-NW 292 8,8 C 14,9 C
21.03.2012 15:27 14,9 C 67 % 1035,4 hPa 0,0 l/m 11,9 km/h (2 Bft) SW 225 8,8 C 14,9 C
21.03.2012 15:32 14,9 C 67 % 1035,4 hPa 0,0 l/m 4,7 km/h (1 Bft) W-SW 247 8,8 C 14,9 C
21.03.2012 15:37 15,1 C 67 % 1035,4 hPa 0,0 l/m 3,6 km/h (1 Bft) W 270 9,0 C 15,1 C
21.03.2012 15:42 15,1 C 66 % 1035,2 hPa 0,0 l/m 6,5 km/h (2 Bft) W-NW 292 8,8 C 15,1 C
21.03.2012 15:47 15,1 C 67 % 1035,2 hPa 0,0 l/m 2,9 km/h (1 Bft) W 270 9,0 C 15,1 C
21.03.2012 15:52 15,0 C 66 % 1035,1 hPa 0,0 l/m 8,3 km/h (2 Bft) W-SW 247 8,7 C 15,0 C
21.03.2012 15:57 15,0 C 66 % 1035,1 hPa 0,0 l/m 3,2 km/h (1 Bft) W-SW 247 8,7 C 15,0 C
21.03.2012 16:02 15,0 C 67 % 1035,2 hPa 0,0 l/m 7,2 km/h (2 Bft) W 270 8,9 C 15,0 C
21.03.2012 16:07 15,1 C 67 % 1035,2 hPa 0,0 l/m 6,5 km/h (2 Bft) W-SW 247 9,0 C 15,1 C
21.03.2012 16:12 15,1 C 66 % 1035,0 hPa 0,0 l/m 4,0 km/h (1 Bft) W 270 8,8 C 15,1 C
21.03.2012 16:17 14,9 C 67 % 1035,0 hPa 0,0 l/m 4,7 km/h (1 Bft) W-NW 292 8,8 C 14,9 C
21.03.2012 16:22 14,9 C 67 % 1034,9 hPa 0,0 l/m 2,9 km/h (1 Bft) W-NW 292 8,8 C 14,9 C
21.03.2012 16:27 14,9 C 66 % 1034,7 hPa 0,0 l/m 2,2 km/h (1 Bft) W-SW 247 8,6 C 14,9 C
21.03.2012 16:32 14,9 C 67 % 1034,9 hPa 0,0 l/m 10,4 km/h (2 Bft) W 270 8,8 C 14,9 C
21.03.2012 16:37 14,9 C 67 % 1034,8 hPa 0,0 l/m 5,8 km/h (2 Bft) W-SW 247 8,8 C 14,9 C
21.03.2012 16:42 14,9 C 67 % 1034,9 hPa 0,0 l/m 7,2 km/h (2 Bft) W-SW 247 8,8 C 14,9 C
21.03.2012 16:47 14,9 C 67 % 1034,8 hPa 0,0 l/m 9,4 km/h (2 Bft) W-SW 247 8,8 C 14,9 C
21.03.2012 16:52 14,9 C 67 % 1034,7 hPa 0,0 l/m 7,6 km/h (2 Bft) W-SW 247 8,8 C 14,9 C
21.03.2012 16:57 14,9 C 67 % 1034,8 hPa 0,0 l/m 7,6 km/h (2 Bft) W-SW 247 8,8 C 14,9 C
21.03.2012 17:02 14,9 C 67 % 1034,8 hPa 0,0 l/m 4,0 km/h (1 Bft) W 270 8,8 C 14,9 C
21.03.2012 17:07 14,8 C 67 % 1034,7 hPa 0,0 l/m 4,0 km/h (1 Bft) W-NW 292 8,7 C 14,8 C
21.03.2012 17:12 14,8 C 67 % 1034,8 hPa 0,0 l/m 4,3 km/h (1 Bft) W 270 8,7 C 14,8 C
21.03.2012 17:17 14,7 C 68 % 1034,8 hPa 0,0 l/m 8,3 km/h (2 Bft) W-SW 247 8,9 C 14,7 C
21.03.2012 17:22 14,6 C 68 % 1034,7 hPa 0,0 l/m 4,7 km/h (1 Bft) W 270 8,8 C 14,6 C
21.03.2012 17:27 14,7 C 68 % 1034,8 hPa 0,0 l/m 4,0 km/h (1 Bft) W 270 8,9 C 14,7 C
21.03.2012 17:32 14,7 C 68 % 1034,8 hPa 0,0 l/m 4,3 km/h (1 Bft) W-NW 292 8,9 C 14,7 C
21.03.2012 17:37 14,7 C 68 % 1034,7 hPa 0,0 l/m 2,5 km/h (1 Bft) W 270 8,9 C 14,7 C
21.03.2012 17:42 14,7 C 68 % 1034,9 hPa 0,0 l/m 9,4 km/h (2 Bft) W 270 8,9 C 14,7 C
21.03.2012 17:47 14,6 C 68 % 1034,8 hPa 0,0 l/m 5,8 km/h (2 Bft) W-NW 292 8,8 C 14,6 C
21.03.2012 17:52 14,5 C 68 % 1035,1 hPa 0,0 l/m 8,3 km/h (2 Bft) NW 315 8,7 C 14,5 C
21.03.2012 17:57 14,4 C 68 % 1035,0 hPa 0,0 l/m 4,0 km/h (1 Bft) W-NW 292 8,6 C 14,4 C
21.03.2012 18:02 14,3 C 68 % 1035,0 hPa 0,0 l/m 3,2 km/h (1 Bft) NW 315 8,5 C 14,3 C
21.03.2012 18:07 14,2 C 69 % 1035,1 hPa 0,0 l/m 0,0 km/h (0 Bft) N-NO 22 8,6 C 14,2 C
21.03.2012 18:12 14,1 C 69 % 1035,1 hPa 0,0 l/m 0,0 km/h (0 Bft) NW 315 8,5 C 14,1 C
21.03.2012 18:17 14,0 C 70 % 1034,9 hPa 0,0 l/m 0,0 km/h (0 Bft) NW 315 8,6 C 14,0 C
21.03.2012 18:22 13,9 C 70 % 1035,0 hPa 0,0 l/m 0,0 km/h (0 Bft) NW 315 8,5 C 13,9 C
21.03.2012 18:27 13,9 C 70 % 1035,1 hPa 0,0 l/m 0,0 km/h (0 Bft) N 360 8,5 C 13,9 C
21.03.2012 18:32 13,8 C 70 % 1035,1 hPa 0,0 l/m 0,0 km/h (0 Bft) N-NW 337 8,4 C 13,8 C
21.03.2012 18:37 13,8 C 70 % 1035,1 hPa 0,0 l/m 2,5 km/h (1 Bft) N-NW 337 8,4 C 13,8 C
21.03.2012 18:42 13,8 C 71 % 1035,2 hPa 0,0 l/m 0,0 km/h (0 Bft) N 360 8,6 C 13,8 C
21.03.2012 18:47 13,7 C 71 % 1035,1 hPa 0,0 l/m 2,5 km/h (1 Bft) NW 315 8,5 C 13,7 C
21.03.2012 18:52 13,6 C 71 % 1035,0 hPa 0,0 l/m 2,2 km/h (1 Bft) NW 315 8,4 C 13,6 C
21.03.2012 18:57 13,6 C 71 % 1035,2 hPa 0,0 l/m 0,0 km/h (0 Bft) NW 315 8,4 C 13,6 C
21.03.2012 19:02 13,6 C 71 % 1035,3 hPa 0,0 l/m 2,9 km/h (1 Bft) W-NW 292 8,4 C 13,6 C
21.03.2012 19:07 13,5 C 71 % 1035,3 hPa 0,0 l/m 0,0 km/h (0 Bft) NW 315 8,3 C 13,5 C
21.03.2012 19:12 13,4 C 71 % 1035,4 hPa 0,0 l/m 1,4 km/h (1 Bft) N-NW 337 8,3 C 13,4 C
21.03.2012 19:17 13,3 C 72 % 1035,4 hPa 0,0 l/m 2,2 km/h (1 Bft) NW 315 8,4 C 13,3 C
21.03.2012 19:22 13,3 C 72 % 1035,5 hPa 0,0 l/m 0,0 km/h (0 Bft) NW 315 8,4 C 13,3 C
21.03.2012 19:27 13,3 C 72 % 1035,3 hPa 0,0 l/m 1,8 km/h (1 Bft) NW 315 8,4 C 13,3 C
21.03.2012 19:32 13,3 C 72 % 1035,4 hPa 0,0 l/m 2,9 km/h (1 Bft) NW 315 8,4 C 13,3 C
21.03.2012 19:37 13,2 C 72 % 1035,7 hPa 0,0 l/m 3,2 km/h (1 Bft) NW 315 8,3 C 13,2 C
21.03.2012 19:42 13,2 C 72 % 1035,5 hPa 0,0 l/m 0,0 km/h (0 Bft) N-NW 337 8,3 C 13,2 C
21.03.2012 19:47 13,1 C 72 % 1035,5 hPa 0,0 l/m 2,9 km/h (1 Bft) N 360 8,2 C 13,1 C
21.03.2012 19:52 13,0 C 72 % 1035,5 hPa 0,0 l/m 0,0 km/h (0 Bft) W-NW 292 8,1 C 13,0 C
21.03.2012 19:57 13,0 C 73 % 1035,5 hPa 0,0 l/m 0,0 km/h (0 Bft) N-NW 337 8,3 C 13,0 C
21.03.2012 20:02 12,9 C 73 % 1035,4 hPa 0,0 l/m 3,2 km/h (1 Bft) NW 315 8,2 C 12,9 C
21.03.2012 20:07 12,9 C 73 % 1035,5 hPa 0,0 l/m 2,2 km/h (1 Bft) NW 315 8,2 C 12,9 C
21.03.2012 20:12 12,9 C 73 % 1035,5 hPa 0,0 l/m 0,0 km/h (0 Bft) N 360 8,2 C 12,9 C
21.03.2012 20:17 12,9 C 73 % 1035,6 hPa 0,0 l/m 0,0 km/h (0 Bft) N-NW 337 8,2 C 12,9 C
21.03.2012 20:22 12,9 C 73 % 1035,5 hPa 0,0 l/m 0,0 km/h (0 Bft) N-NW 337 8,2 C 12,9 C
21.03.2012 20:27 12,8 C 74 % 1035,6 hPa 0,0 l/m 0,0 km/h (0 Bft) NW 315 8,3 C 12,8 C
21.03.2012 20:32 12,8 C 74 % 1035,6 hPa 0,0 l/m 1,1 km/h (1 Bft) N-NW 337 8,3 C 12,8 C
21.03.2012 20:37 12,8 C 74 % 1035,5 hPa 0,0 l/m 2,5 km/h (1 Bft) N 360 8,3 C 12,8 C
21.03.2012 20:42 12,8 C 74 % 1035,5 hPa 0,0 l/m 1,8 km/h (1 Bft) NO 45 8,3 C 12,8 C
21.03.2012 20:47 12,7 C 74 % 1035,7 hPa 0,0 l/m 0,0 km/h (0 Bft) N-NW 337 8,2 C 12,7 C
21.03.2012 20:52 12,7 C 74 % 1035,6 hPa 0,0 l/m 2,5 km/h (1 Bft) NW 315 8,2 C 12,7 C
21.03.2012 20:57 12,6 C 73 % 1035,7 hPa 0,0 l/m 4,0 km/h (1 Bft) N-NW 337 7,9 C 12,6 C
21.03.2012 21:02 12,6 C 74 % 1035,7 hPa 0,0 l/m 0,0 km/h (0 Bft) NW 315 8,1 C 12,6 C
21.03.2012 21:07 12,5 C 74 % 1035,8 hPa 0,5 l/m 1,8 km/h (1 Bft) N 360 8,0 C 12,5 C
21.03.2012 21:12 12,5 C 74 % 1035,7 hPa 0,0 l/m 2,9 km/h (1 Bft) N-NO 22 8,0 C 12,5 C
21.03.2012 21:17 12,5 C 74 % 1035,8 hPa 0,0 l/m 2,2 km/h (1 Bft) N-NO 22 8,0 C 12,5 C
21.03.2012 21:22 12,6 C 74 % 1035,9 hPa 0,0 l/m 3,6 km/h (1 Bft) N 360 8,1 C 12,6 C
21.03.2012 21:27 12,6 C 74 % 1036,0 hPa 0,0 l/m 2,9 km/h (1 Bft) N 360 8,1 C 12,6 C
21.03.2012 21:32 12,6 C 74 % 1035,8 hPa 0,0 l/m 3,2 km/h (1 Bft) N-NO 22 8,1 C 12,6 C
21.03.2012 21:37 12,6 C 74 % 1035,8 hPa 0,0 l/m 0,0 km/h (0 Bft) NO 45 8,1 C 12,6 C
21.03.2012 21:42 12,6 C 74 % 1035,9 hPa 0,0 l/m 0,0 km/h (0 Bft) N-NO 22 8,1 C 12,6 C
21.03.2012 21:47 12,5 C 74 % 1035,8 hPa 0,0 l/m 2,9 km/h (1 Bft) O-NO 67 8,0 C 12,5 C
21.03.2012 21:52 12,5 C 74 % 1035,9 hPa 0,0 l/m 0,0 km/h (0 Bft) NO 45 8,0 C 12,5 C
21.03.2012 21:57 12,5 C 74 % 1035,9 hPa 0,0 l/m 0,0 km/h (0 Bft) N-NW 337 8,0 C 12,5 C
21.03.2012 22:02 12,4 C 74 % 1035,8 hPa 0,0 l/m 1,1 km/h (1 Bft) N 360 7,9 C 12,4 C
21.03.2012 22:07 12,4 C 74 % 1035,8 hPa 0,0 l/m 1,1 km/h (1 Bft) NO 45 7,9 C 12,4 C
21.03.2012 22:12 12,4 C 75 % 1036,1 hPa 0,0 l/m 1,1 km/h (1 Bft) N-NO 22 8,1 C 12,4 C
21.03.2012 22:17 12,4 C 75 % 1036,0 hPa 0,0 l/m 0,0 km/h (0 Bft) N-NO 22 8,1 C 12,4 C
21.03.2012 22:22 12,3 C 75 % 1036,0 hPa 0,0 l/m 1,1 km/h (1 Bft) N-NO 22 8,0 C 12,3 C
21.03.2012 22:27 12,3 C 75 % 1035,8 hPa 0,0 l/m 1,8 km/h (1 Bft) N 360 8,0 C 12,3 C
21.03.2012 22:32 12,3 C 75 % 1035,9 hPa 0,0 l/m 2,5 km/h (1 Bft) NO 45 8,0 C 12,3 C
21.03.2012 22:37 12,2 C 76 % 1036,0 hPa 0,0 l/m 2,2 km/h (1 Bft) N-NW 337 8,1 C 12,2 C
21.03.2012 22:42 12,2 C 76 % 1035,8 hPa 0,0 l/m 4,0 km/h (1 Bft) N-NW 337 8,1 C 12,2 C
21.03.2012 22:47 12,2 C 76 % 1035,9 hPa 0,0 l/m 0,0 km/h (0 Bft) N-NW 337 8,1 C 12,2 C
21.03.2012 22:52 12,1 C 76 % 1035,9 hPa 0,0 l/m 2,5 km/h (1 Bft) N-NO 22 8,0 C 12,1 C
21.03.2012 22:57 12,1 C 76 % 1036,1 hPa 0,0 l/m 2,2 km/h (1 Bft) NO 45 8,0 C 12,1 C
21.03.2012 23:02 12,1 C 76 % 1035,8 hPa 0,0 l/m 0,0 km/h (0 Bft) N 360 8,0 C 12,1 C
21.03.2012 23:07 12,1 C 76 % 1035,9 hPa 0,0 l/m 1,4 km/h (1 Bft) N-NO 22 8,0 C 12,1 C
21.03.2012 23:12 12,1 C 76 % 1036,0 hPa 0,0 l/m 2,5 km/h (1 Bft) NO 45 8,0 C 12,1 C
21.03.2012 23:17 12,1 C 76 % 1036,1 hPa 0,0 l/m 0,0 km/h (0 Bft) N 360 8,0 C 12,1 C
21.03.2012 23:22 12,0 C 76 % 1036,2 hPa 0,0 l/m 0,0 km/h (0 Bft) N 360 7,9 C 12,0 C
21.03.2012 23:27 11,9 C 76 % 1035,9 hPa 0,0 l/m 0,0 km/h (0 Bft) N-NW 337 7,8 C 11,9 C
21.03.2012 23:32 11,9 C 76 % 1036,0 hPa 0,0 l/m 1,1 km/h (1 Bft) NW 315 7,8 C 11,9 C
21.03.2012 23:37 11,9 C 76 % 1036,0 hPa 0,0 l/m 3,2 km/h (1 Bft) NO 45 7,8 C 11,9 C
21.03.2012 23:42 11,8 C 76 % 1036,0 hPa 0,0 l/m 0,0 km/h (0 Bft) NO 45 7,7 C 11,8 C
21.03.2012 23:47 11,8 C 76 % 1036,2 hPa 0,0 l/m 0,0 km/h (0 Bft) N-NO 22 7,7 C 11,8 C
21.03.2012 23:52 11,8 C 76 % 1035,9 hPa 0,0 l/m 0,0 km/h (0 Bft) N 360 7,7 C 11,8 C
21.03.2012 23:57 11,9 C 76 % 1035,9 hPa 0,0 l/m 0,0 km/h (0 Bft) N-NO 22 7,8 C 11,9 C
_ Min-Zeit 06:22 15:42 00:07 - 06:42 - - 00:07 05:02
Minimum _ 9,8 C 66 % 1033,8 hPa - 0,0 km/h (0 Bft) - - 5,3 C 8,3 C
_ Max-Zeit 13:42 07:27 11:32 21:07 10:17 - - 13:32 13:42
Maximum _ 15,2 C 80 % 1036,8 hPa 0,5 l/m 16,9 km/h
W-NW (3 Bft)
- - 9,3 C 15,2 C
Durchschnitt _ 12,1 C 74 % 1035,4 hPa #0,5 l/m 5,2 km/h (1 Bft) W - 7,5 C 12,0 C
(c) by David Heller